This demonstration page uses our WeatherBlox Daily Observations layout. Learn more.

Left ArrowRight Arrow

Hourly Observations for January 4, 2016

Temp ( °F °C ) Dew Point ( °F °C ) Humidity (%) Winds ( mph kmh ) Pressure ( in mb ) Visibility ( mi km ) Precip ( " mm )
12:53 am 00:53 Clear 30 -1.1 25 -3.9 82 82 N 7 11 30.29 1026 10 16 0.00 0.00
1:53 am 01:53 Clear 28 -2.2 25 -3.9 88 88 N 7 11 30.28 1025 10 16 0.00 0.00
2:53 am 02:53 Clear 28 -2.2 24 -4.4 85 85 N 8 13 30.28 1025 10 16 0.00 0.00
3:53 am 03:53 Clear 28 -2.2 24 -4.4 85 85 N 6 9 30.30 1026 10 16 0.00 0.00
4:53 am 04:53 Clear 26 -3.3 23 -5 88 88 N 7 11 30.30 1026 10 16 0.00 0.00
5:53 am 05:53 Clear 26 -3.3 22 -5.6 84 84 N 6 9 30.29 1026 10 16 0.00 0.00
6:53 am 06:53 Clear 25 -3.9 22 -5.6 88 88 N 6 9 30.31 1026 10 16 0.00 0.00
7:53 am 07:53 Clear 25 -3.9 21 -6.1 85 85 N 5 7 30.32 1027 10 16 0.00 0.00
8:53 am 08:53 Sunny 30 -1.1 24 -4.4 79 79 NNW 3 6 30.34 1028 10 16 0.00 0.00
9:53 am 09:53 Sunny 36 2.2 27 -2.8 70 70 Calm 30.36 1028 10 16 0.00 0.00
10:53 am 10:53 Sunny 40 4.4 28 -2.2 63 63 E 8 13 30.34 1028 10 16 0.00 0.00
11:53 am 11:53 Sunny 44 6.7 30 -1.1 58 58 ESE 8 13 30.30 1026 10 16 0.00 0.00
12:53 pm 12:53 Sunny 49 9.4 31 -0.6 50 50 ESE 8 13 30.24 1024 10 16 0.00 0.00
1:53 pm 13:53 Sunny 50 10 30 -1.1 46 46 SE 10 17 30.20 1023 10 16 0.00 0.00
2:53 pm 14:53 Sunny 51 10.6 28 -2.2 41 41 ESE 9 15 30.17 1022 10 16 0.00 0.00
3:53 pm 15:53 Sunny 50 10 27 -2.8 41 41 SE 10 17 30.16 1021 10 16 0.00 0.00
4:53 pm 16:53 Sunny 50 10 28 -2.2 43 43 ESE 8 13 30.16 1021 10 16 0.00 0.00
5:53 pm 17:53 Sunny 48 8.9 28 -2.2 46 46 ESE 8 13 30.16 1021 10 16 0.00 0.00
6:53 pm 18:53 Clear 45 7.2 29 -1.7 54 54 E 8 13 30.19 1022 10 16 0.00 0.00
7:53 pm 19:53 Clear 43 6.1 29 -1.7 58 58 E 13 20 30.18 1022 10 16 0.00 0.00
8:53 pm 20:53 Clear 41 5 28 -2.2 60 60 E 8 13 30.18 1022 10 16 0.00 0.00
9:53 pm 21:53 Clear 37 2.8 28 -2.2 70 70 ENE 7 11 30.17 1022 10 16 0.00 0.00
10:53 pm 22:53 Clear 36 2.2 28 -2.2 73 73 ENE 8 13 30.17 1022 10 16 0.00 0.00
11:53 pm 23:53 Mostly Cloudy 38 3.3 29 -1.7 70 70 E 9 15 30.16 1021 10 16 0.00 0.00

Powered by AerisWeather